sat.trackr.live / text

‹ back to catalog

STARLINK-31312

NORAD 59152 · 2024-044A

PAYLOAD ACTIVE UNKNOWN

§ Identity

Operator
Country
US
Launch date
2024-03-04
Launch site
AFETR
Launch vehicle
Mass (kg)
RCS (m²)

Purposes: comms

External: N2YO · Heavens-Above · Gunter

§ Orbital elements

Epoch: 2026-05-24T14:56:40.149024Z

Period
94.27 min
Inclination
43.0039°
Eccentricity
0.0001511
Mean motion
15.27580321 rev/d
Perigee alt
482.0 km
Apogee alt
484.1 km
Semi-major
6,861.2 km
B*
6.1578e-5
RAAN
347.4998°
Arg perigee
269.4301°
Mean anomaly
90.6378°
Rev number
12,579

§ Raw data

STARLINK-313121 59152U 24044A   26144.62268691  .00001433  00000+0  61578-4 0  99942 59152  43.0039 347.4998 0001511 269.4301  90.6378 15.27580321125791

JSON: /api/v1/satellites/59152 · /tle

For live sub-satellite position, see the globe view (requires WebGL).

§ Visibility from observer

Set your observer location to see the next 7 days of passes ≥ 10°. The values pass through the URL so the page stays shareable.

No JS? Fill the form by hand. The geolocation button needs JavaScript.